FW9002 Weather Reports


time (UTC)temp
F
wind
direction
speed
knots
gust
knots
rain 1hr
in
rain 24hr
in
rain mn
in
humidity
%
barometer
mb
20240614130111 72 163 0.0 0.0 0.00 0.00 0.00 34 1011.5
20240614125601 71 164 0.0 0.0 0.00 0.00 0.00 36 1011.6
20240614125056 71 165 0.0 0.0 0.00 0.00 0.00 36 1011.6
20240614124556 71 162 0.0 0.0 0.00 0.00 0.00 34 1011.3
20240614124054 70 162 0.0 0.0 0.00 0.00 0.00 35 1011.3
20240614123553 70 164 0.0 0.0 0.00 0.00 0.00 35 1011.4
20240614123052 70 161 0.0 0.0 0.00 0.00 0.00 35 1011.3
20240614122548 70 163 0.0 0.0 0.00 0.00 0.00 35 1011.4
20240614122047 70 159 0.0 0.0 0.00 0.00 0.00 35 1011.5
20240614121547 71 151 0.0 0.0 0.00 0.00 0.00 34 1011.7
20240614121045 71 154 0.0 0.9 0.00 0.00 0.00 33 1011.3
20240614120544 71 142 0.0 0.0 0.00 0.00 0.00 33 1011.6
20240614120044 72 169 0.0 0.0 0.00 0.00 0.00 32 1011.3
20240614115544 71 165 0.0 0.0 0.00 0.00 0.00 33 1011.3
20240614115043 71 159 0.0 0.0 0.00 0.00 0.00 33 1011.1
20240614114541 71 163 0.0 0.0 0.00 0.00 0.00 33 1011.2
20240614114041 71 161 0.0 0.0 0.00 0.00 0.00 33 1011.4
20240614113539 71 161 0.0 0.0 0.00 0.00 0.00 33 1011.1
20240614113036 71 164 0.0 0.0 0.00 0.00 0.00 34 1011.1
20240614112534 72 163 0.0 0.0 0.00 0.00 0.00 34 1011.1
20240614112034 72 164 0.0 0.0 0.00 0.00 0.00 33 1011.0
20240614111532 72 162 0.0 0.0 0.00 0.00 0.00 33 1011.0
20240614111030 72 162 0.0 0.0 0.00 0.00 0.00 33 1011.1
20240614110528 72 164 0.0 0.0 0.00 0.00 0.00 33 1011.3
20240614110027 72 163 0.0 0.0 0.00 0.00 0.00 33 1011.4
20240614105525 72 164 0.0 0.0 0.00 0.00 0.00 32 1011.3
20240614105024 72 163 0.0 0.0 0.00 0.00 0.00 32 1010.9
20240614104520 72 164 0.0 0.0 0.00 0.00 0.00 33 1011.0
20240614104020 73 165 0.0 0.0 0.00 0.00 0.00 32 1011.1
20240614103519 73 164 0.0 0.0 0.00 0.00 0.00 30 1011.2
20240614103017 74 164 0.0 0.0 0.00 0.00 0.00 30 1011.0
20240614102513 74 164 0.0 0.0 0.00 0.00 0.00 30 1011.2
20240614102013 74 159 0.0 0.0 0.00 0.00 0.00 30 1011.2
20240614101511 74 165 0.0 0.0 0.00 0.00 0.00 29 1011.1
20240614101011 74 163 0.0 0.0 0.00 0.00 0.00 29 1011.1
20240614100510 74 164 0.0 0.0 0.00 0.00 0.00 29 1011.0
20240614100009 75 166 0.0 0.0 0.00 0.00 0.00 29 1011.3
20240614095507 75 161 0.0 0.0 0.00 0.00 0.00 28 1011.0
20240614095005 75 163 0.0 0.0 0.00 0.00 0.00 28 1010.9
20240614094504 75 163 0.0 0.0 0.00 0.00 0.00 29 1010.9
20240614094003 75 164 0.0 0.0 0.00 0.00 0.00 29 1010.7
20240614093503 75 157 0.0 0.0 0.00 0.00 0.00 29 1011.0
20240614093000 75 162 0.0 0.0 0.00 0.00 0.00 29 1011.0
20240614092459 75 164 0.0 0.0 0.00 0.00 0.00 29 1010.7
20240614091957 76 163 0.0 0.0 0.00 0.00 0.00 28 1011.2
20240614091455 76 165 0.0 0.0 0.00 0.00 0.00 28 1011.0
20240614090953 76 163 0.0 0.0 0.00 0.00 0.00 28 1011.1
20240614090451 76 163 0.0 0.0 0.00 0.00 0.00 28 1011.2
20240614085950 76 163 0.0 0.0 0.00 0.00 0.00 28 1011.2
20240614085448 76 164 0.0 0.0 0.00 0.00 0.00 28 1011.1
20240614084945 77 163 0.0 0.0 0.00 0.00 0.00 28 1011.4
20240614084445 77 163 0.0 0.0 0.00 0.00 0.00 27 1011.4
20240614083944 77 163 0.0 0.0 0.00 0.00 0.00 27 1011.3
20240614083441 77 163 0.0 0.0 0.00 0.00 0.00 26 1011.4
20240614082940 78 164 0.0 0.0 0.00 0.00 0.00 26 1011.3
20240614082439 78 162 0.0 0.0 0.00 0.00 0.00 26 1011.2
20240614081937 77 164 0.0 0.0 0.00 0.00 0.00 26 1011.5
20240614081436 78 164 0.0 0.0 0.00 0.00 0.00 26 1011.6
20240614080935 79 165 0.0 0.0 0.00 0.00 0.00 25 1011.6
20240614080433 78 164 0.0 0.0 0.00 0.00 0.00 25 1011.4
20240614075933 79 161 0.0 0.0 0.00 0.00 0.00 25 1011.5
20240614075432 79 164 0.0 0.0 0.00 0.00 0.00 25 1011.4
20240614074932 80 163 0.0 0.0 0.00 0.00 0.00 25 1011.5
20240614074430 80 163 0.0 0.0 0.00 0.00 0.00 25 1011.4
20240614073929 80 164 0.0 0.0 0.00 0.00 0.00 24 1011.5
20240614073428 81 165 0.0 0.0 0.00 0.00 0.00 24 1011.4
20240614072926 82 165 0.0 0.0 0.00 0.00 0.00 23 1011.2
20240614072426 82 163 0.0 0.0 0.00 0.00 0.00 22 1011.2
20240614071925 82 162 0.0 0.0 0.00 0.00 0.00 22 1011.4
20240614071424 82 167 0.0 0.0 0.00 0.00 0.00 21 1011.4
20240614070923 83 166 0.0 0.0 0.00 0.00 0.00 21 1011.4
20240614070420 84 166 0.0 0.0 0.00 0.00 0.00 20 1011.5
20240614065920 84 165 0.0 0.0 0.00 0.00 0.00 20 1011.3
20240614065419 84 159 0.0 0.0 0.00 0.00 0.00 20 1011.4
20240614064917 84 167 0.0 0.0 0.00 0.00 0.00 20 1011.3
20240614064415 83 174 1.7 1.7 0.00 0.00 0.00 21 1011.3
20240614063913 83 166 0.0 0.0 0.00 0.00 0.00 22 1011.4
20240614063412 84 164 0.0 0.0 0.00 0.00 0.00 22 1011.4
20240614062912 84 163 0.0 0.0 0.00 0.00 0.00 22 1011.6
20240614062411 85 162 0.0 0.0 0.00 0.00 0.00 21 1011.6
20240614061910 86 162 0.0 0.0 0.00 0.00 0.00 21 1011.4
20240614061409 88 172 1.7 1.7 0.00 0.00 0.00 19 1011.4
20240614060908 88 166 0.0 0.0 0.00 0.00 0.00 17 1011.2
20240614060404 89 172 1.7 1.7 0.00 0.00 0.00 16 1011.2
20240614055902 89 262 1.7 4.3 0.00 0.00 0.00 16 1011.3
20240614055401 89 193 2.6 4.3 0.00 0.00 0.00 17 1011.1
20240614054900 89 175 0.0 0.9 0.00 0.00 0.00 17 1011.2
20240614054359 89 168 0.9 0.9 0.00 0.00 0.00 17 1011.2
20240614053859 89 165 0.0 0.0 0.00 0.00 0.00 17 1011.3
20240614053357 88 176 0.9 1.7 0.00 0.00 0.00 17 1011.2
20240614052857 87 167 0.0 0.0 0.00 0.00 0.00 19 1011.4
20240614052355 87 165 0.0 0.0 0.00 0.00 0.00 19 1011.3
20240614051854 87 164 0.0 0.0 0.00 0.00 0.00 18 1011.2
20240614051353 87 165 0.0 0.0 0.00 0.00 0.00 19 1011.3
20240614050851 87 166 0.0 0.0 0.00 0.00 0.00 18 1011.2
20240614050350 89 171 0.0 0.0 0.00 0.00 0.00 18 1011.3
20240614045849 89 123 1.7 4.3 0.00 0.00 0.00 18 1011.3
20240614045348 89 166 0.0 0.0 0.00 0.00 0.00 17 1011.6
20240614044846 89 164 0.0 0.0 0.00 0.00 0.00 17 1011.1
20240614044345 89 168 0.0 0.9 0.00 0.00 0.00 17 1011.2
20240614043845 90 172 0.0 0.0 0.00 0.00 0.00 17 1011.7
20240614043344 90 184 0.0 0.9 0.00 0.00 0.00 18 1011.4
20240614042843 90 172 0.9 1.7 0.00 0.00 0.00 17 1011.6
20240614042342 91 168 0.9 1.7 0.00 0.00 0.00 16 1011.4
20240614041840 91 163 0.9 0.9 0.00 0.00 0.00 17 1011.4
20240614041337 91 164 0.0 0.9 0.00 0.00 0.00 17 1011.3
20240614040836 91 170 0.9 0.9 0.00 0.00 0.00 17 1011.3
20240614040335 89 166 0.0 0.0 0.00 0.00 0.00 18 1011.6
20240614035833 88 182 0.9 0.9 0.00 0.00 0.00 19 1011.3
20240614035333 88 164 0.0 0.0 0.00 0.00 0.00 20 1011.3
20240614034832 89 164 0.0 0.0 0.00 0.00 0.00 19 1011.3
20240614034331 89 164 0.0 0.0 0.00 0.00 0.00 19 1011.2
20240614033829 89 164 0.0 0.0 0.00 0.00 0.00 19 1011.3
20240614033329 90 164 0.0 0.0 0.00 0.00 0.00 19 1011.0
20240614032827 90 164 0.0 0.0 0.00 0.00 0.00 19 1011.1
20240614032325 90 164 0.0 0.0 0.00 0.00 0.00 19 1011.2
20240614031825 91 164 0.0 0.0 0.00 0.00 0.00 19 1011.0
20240614031324 91 166 0.0 0.0 0.00 0.00 0.00 18 1011.0
20240614030822 92 164 0.0 0.0 0.00 0.00 0.00 16 1011.0
20240614030320 93 166 0.0 0.0 0.00 0.00 0.00 15 1011.0
20240614025818 93 167 0.0 0.0 0.00 0.00 0.00 16 1010.9
20240614025317 93 166 0.0 0.0 0.00 0.00 0.00 16 1010.9
20240614024816 93 170 0.0 0.0 0.00 0.00 0.00 15 1010.9
20240614024315 94 173 0.0 0.0 0.00 0.00 0.00 15 1011.1
20240614023814 94 172 0.0 0.9 0.00 0.00 0.00 15 1011.0
20240614023312 94 166 0.0 0.0 0.00 0.00 0.00 15 1010.9
20240614022811 94 166 0.0 0.0 0.00 0.00 0.00 15 1011.0
20240614022310 95 162 0.0 0.9 0.00 0.00 0.00 15 1010.9
20240614021810 95 173 0.9 0.9 0.00 0.00 0.00 14 1010.9
20240614021309 96 174 0.9 1.7 0.00 0.00 0.00 14 1011.2
20240614020808 97 172 0.9 1.7 0.00 0.00 0.00 14 1011.1
20240614020307 97 165 0.0 0.9 0.00 0.00 0.00 14 1011.3
20240614015806 98 140 0.9 2.6 0.00 0.00 0.00 14 1011.1
20240614015306 98 187 1.7 2.6 0.00 0.00 0.00 13 1011.0
20240614014804 99 163 0.9 1.7 0.00 0.00 0.00 13 1010.9
20240614014302 99 169 0.0 0.9 0.00 0.00 0.00 13 1010.9
20240614013800 99 163 1.7 4.3 0.00 0.00 0.00 13 1011.0
20240614013258 99 200 2.6 4.3 0.00 0.00 0.00 13 1011.0
20240614012757 100 163 0.9 2.6 0.00 0.00 0.00 13 1011.2
20240614012254 100 177 0.9 0.9 0.00 0.00 0.00 13 1011.0
20240614011753 100 173 0.0 0.0 0.00 0.00 0.00 13 1011.1
20240614011251 100 148 1.7 2.6 0.00 0.00 0.00 12 1010.9
20240614010751 100 171 2.6 5.2 0.00 0.00 0.00 13 1011.0
20240614010250 100 196 0.9 1.7 0.00 0.00 0.00 13 1011.0
20240614005750 101 90 3.5 5.2 0.00 0.00 0.00 12 1011.0
20240614005248 101 134 1.7 2.6 0.00 0.00 0.00 12 1011.0
20240614004747 101 189 0.9 1.7 0.00 0.00 0.00 13 1011.1
20240614004245 101 197 4.3 7.0 0.00 0.00 0.00 12 1011.0
20240614003743 100 244 4.3 8.7 0.00 0.00 0.00 12 1010.7
20240614003243 100 144 1.7 2.6 0.00 0.00 0.00 13 1011.1
20240614002741 101 320 6.1 7.8 0.00 0.00 0.00 12 1011.1
20240614002237 100 168 2.6 2.6 0.00 0.00 0.00 12 1011.1
20240614001736 99 178 0.9 1.7 0.00 0.00 0.00 12 1011.3
20240614001235 99 171 2.6 2.6 0.00 0.00 0.00 12 1011.2
20240614000733 99 245 3.5 4.3 0.00 0.00 0.00 12 1011.1
20240614000234 100 201 1.7 2.6 0.00 0.00 0.00 12 1011.3
20240613235732 100 165 0.0 0.0 0.00 0.00 0.00 12 1011.3
20240613235231 100 187 1.7 2.6 0.00 0.00 0.00 12 1011.2
20240613234730 100 253 3.5 5.2 0.00 0.00 0.00 12 1011.2
20240613234230 101 207 2.6 4.3 0.00 0.00 0.00 12 1011.4
20240613233729 101 171 2.6 2.6 0.00 0.00 0.00 12 1011.3
20240613233227 103 177 1.7 1.7 0.00 0.00 0.00 12 1011.2
20240613232725 102 167 0.0 0.9 0.00 0.00 0.00 12 1011.3
20240613232224 103 157 2.6 4.3 0.00 0.00 0.00 12 1011.2
20240613231723 104 162 0.9 1.7 0.00 0.00 0.00 11 1011.4
20240613231220 102 152 0.9 1.7 0.00 0.00 0.00 12 1011.1
20240613230719 102 195 1.7 2.6 0.00 0.00 0.00 11 1011.1
20240613230217 102 158 3.5 5.2 0.00 0.00 0.00 11 1011.5
20240613225715 102 179 2.6 2.6 0.00 0.00 0.00 12 1011.4
20240613225213 103 178 4.3 6.1 0.00 0.00 0.00 11 1011.6
20240613224706 101 149 1.7 2.6 0.00 0.00 0.00 13 1011.7
20240613224156 101 152 3.5 4.3 0.00 0.00 0.00 12 1011.7
20240613223654 102 200 2.6 4.3 0.00 0.00 0.00 12 1011.7
20240613223153 102 229 1.7 2.6 0.00 0.00 0.00 12 1012.0
20240613222652 101 168 0.0 0.9 0.00 0.00 0.00 13 1011.9
20240613222152 101 194 5.2 6.1 0.00 0.00 0.00 12 1011.9
20240613221651 101 185 4.3 7.0 0.00 0.00 0.00 12 1012.1
20240613221149 99 164 0.0 0.0 0.00 0.00 0.00 14 1012.4
20240613220649 99 169 0.9 0.9 0.00 0.00 0.00 13 1012.4
20240613220147 99 176 0.9 0.9 0.00 0.00 0.00 12 1012.8
20240613215644 100 167 0.9 2.6 0.00 0.00 0.00 14 1012.0
20240613215142 100 164 0.9 1.7 0.00 0.00 0.00 12 1012.2
20240613214641 100 197 2.6 2.6 0.00 0.00 0.00 13 1012.1
20240613214140 99 227 1.7 2.6 0.00 0.00 0.00 13 1012.2
20240613213638 99 180 0.9 2.6 0.00 0.00 0.00 13 1012.4
20240613213137 99 176 0.9 0.9 0.00 0.00 0.00 13 1012.4
20240613212637 98 152 1.7 1.7 0.00 0.00 0.00 14 1012.4
20240613212136 98 169 0.0 0.0 0.00 0.00 0.00 13 1012.5
20240613211635 98 162 1.7 2.6 0.00 0.00 0.00 13 1012.6
20240613211133 97 232 2.6 5.2 0.00 0.00 0.00 13 1012.6
20240613210632 97 281 3.5 6.1 0.00 0.00 0.00 13 1012.8
20240613210131 97 172 0.0 0.9 0.00 0.00 0.00 13 1013.1
20240613205627 98 165 2.6 4.3 0.00 0.00 0.00 13 1013.2
20240613205125 98 123 3.5 5.2 0.00 0.00 0.00 13 1013.4
20240613204625 99 172 2.6 4.3 0.00 0.00 0.00 13 1013.2
20240613204124 99 150 6.1 8.7 0.00 0.00 0.00 12 1013.3
20240613203623 100 180 4.3 7.0 0.00 0.00 0.00 12 1013.2
20240613203122 100 146 2.6 4.3 0.00 0.00 0.00 13 1013.1
20240613202619 100 298 4.3 6.1 0.00 0.00 0.00 12 1013.1
20240613202118 100 165 0.9 1.7 0.00 0.00 0.00 13 1013.1
20240613201617 99 174 4.3 6.1 0.00 0.00 0.00 13 1013.2
20240613201114 98 209 1.7 4.3 0.00 0.00 0.00 13 1013.2
20240613200613 98 164 1.7 2.6 0.00 0.00 0.00 13 1013.3
20240613200112 99 153 2.6 2.6 0.00 0.00 0.00 13 1013.5
20240613195610 100 249 3.5 5.2 0.00 0.00 0.00 12 1013.5
20240613195109 99 193 3.5 5.2 0.00 0.00 0.00 12 1013.6
20240613194608 98 197 2.6 2.6 0.00 0.00 0.00 13 1013.5
20240613194106 98 200 0.0 0.9 0.00 0.00 0.00 14 1013.6
20240613193603 98 196 0.9 1.7 0.00 0.00 0.00 13 1013.8
20240613193102 98 181 1.7 1.7 0.00 0.00 0.00 13 1014.0
20240613192601 98 175 0.9 1.7 0.00 0.00 0.00 13 1013.6
20240613192100 98 173 2.6 4.3 0.00 0.00 0.00 14 1013.6
20240613191558 98 174 0.9 0.9 0.00 0.00 0.00 13 1013.9
20240613191057 98 179 0.0 0.0 0.00 0.00 0.00 14 1013.9
20240613190555 98 173 0.0 0.9 0.00 0.00 0.00 13 1013.6
20240613190054 99 177 1.7 2.6 0.00 0.00 0.00 13 1013.8
20240613185554 99 164 0.0 0.0 0.00 0.00 0.00 13 1014.0
20240613185053 100 176 2.6 4.3 0.00 0.00 0.00 13 1014.2
20240613184553 99 167 0.9 0.9 0.00 0.00 0.00 14 1014.0
20240613184051 99 167 0.0 0.0 0.00 0.00 0.00 13 1014.1
20240613183549 100 179 0.9 0.9 0.00 0.00 0.00 14 1014.3
20240613183047 100 168 0.9 0.9 0.00 0.00 0.00 14 1014.3
20240613182544 100 184 0.0 0.9 0.00 0.00 0.00 13 1014.2
20240613182044 98 159 0.9 0.9 0.00 0.00 0.00 14 1014.3
20240613181541 99 211 4.3 4.3 0.00 0.00 0.00 13 1014.4
20240613181040 99 90 1.7 2.6 0.00 0.00 0.00 14 1014.2
20240613180540 98 165 0.9 1.7 0.00 0.00 0.00 14 1014.4
20240613180038 100 167 1.7 2.6 0.00 0.00 0.00 14 1014.1
20240613175537 98 173 0.9 2.6 0.00 0.00 0.00 14 1014.3
20240613175035 99 137 0.9 2.6 0.00 0.00 0.00 14 1014.1
20240613174534 98 208 0.0 0.9 0.00 0.00 0.00 15 1014.2
20240613174033 97 180 0.9 1.7 0.00 0.00 0.00 14 1014.2
20240613173532 98 169 0.9 0.9 0.00 0.00 0.00 13 1014.2
20240613173030 97 167 0.0 0.0 0.00 0.00 0.00 15 1014.2
20240613172530 97 164 0.0 0.0 0.00 0.00 0.00 14 1014.3
20240613172029 98 165 0.0 0.0 0.00 0.00 0.00 14 1014.1
20240613171527 96 167 0.0 0.0 0.00 0.00 0.00 14 1014.0
20240613171025 95 165 0.0 0.0 0.00 0.00 0.00 14 1013.9
20240613170524 95 165 0.0 0.0 0.00 0.00 0.00 15 1014.0
20240613170023 96 174 0.0 0.0 0.00 0.00 0.00 15 1014.2
20240613165520 95 179 0.0 0.9 0.00 0.00 0.00 15 1014.2
20240613165019 94 166 0.0 0.0 0.00 0.00 0.00 17 1014.2
20240613164518 95 174 1.7 4.3 0.00 0.00 0.00 15 1014.4
20240613164017 96 172 0.0 0.0 0.00 0.00 0.00 16 1014.4
20240613163516 96 161 0.0 0.0 0.00 0.00 0.00 16 1014.0
20240613163016 95 165 0.0 0.0 0.00 0.00 0.00 17 1014.4
20240613162511 94 161 0.0 0.0 0.00 0.00 0.00 17 1014.1
20240613162010 94 144 0.0 0.9 0.00 0.00 0.00 17 1014.3
20240613161508 94 167 0.0 0.0 0.00 0.00 0.00 19 1014.3
20240613161007 92 182 0.9 1.7 0.00 0.00 0.00 17 1014.3
20240613160505 92 160 0.0 0.9 0.00 0.00 0.00 17 1014.2
20240613160005 91 182 1.7 1.7 0.00 0.00 0.00 18 1014.2
20240613155500 91 172 0.0 0.9 0.00 0.00 0.00 18 1014.4
20240613155000 90 168 0.0 0.9 0.00 0.00 0.00 19 1014.5
20240613154457 89 167 0.0 0.0 0.00 0.00 0.00 21 1014.6
20240613153957 88 165 0.0 0.0 0.00 0.00 0.00 21 1014.4
20240613153455 87 160 0.0 0.9 0.00 0.00 0.00 21 1014.4
20240613152954 86 163 0.0 0.0 0.00 0.00 0.00 21 1014.0
20240613152450 86 161 0.9 1.7 0.00 0.00 0.00 22 1014.2
20240613151950 86 155 0.0 0.0 0.00 0.00 0.00 21 1014.2
20240613151446 85 164 1.7 1.7 0.00 0.00 0.00 20 1014.3
20240613150944 84 170 0.0 0.0 0.00 0.00 0.00 24 1014.2
20240613150442 84 163 0.0 0.0 0.00 0.00 0.00 25 1014.2
20240613145941 83 162 0.0 0.0 0.00 0.00 0.00 25 1014.2
20240613145440 82 165 0.0 0.0 0.00 0.00 0.00 26 1014.2
20240613144939 81 165 0.0 0.0 0.00 0.00 0.00 27 1014.4
20240613144436 81 172 0.9 1.7 0.00 0.00 0.00 26 1014.6
20240613143934 81 166 0.0 0.0 0.00 0.00 0.00 26 1014.2
20240613143432 81 144 0.9 1.7 0.00 0.00 0.00 27 1014.3
20240613142930 82 157 0.9 0.9 0.00 0.00 0.00 28 1014.3
20240613142429 83 157 0.0 0.0 0.00 0.00 0.00 28 1014.0
20240613141928 83 149 0.9 1.7 0.00 0.00 0.00 22 1014.1
20240613141425 83 157 0.0 0.9 0.00 0.00 0.00 23 1014.0
20240613140924 82 165 0.0 0.0 0.00 0.00 0.00 23 1014.4
20240613140424 82 168 0.0 0.0 0.00 0.00 0.00 23 1014.4
20240613135923 80 167 0.0 0.0 0.00 0.00 0.00 25 1014.5
20240613135422 79 147 1.7 1.7 0.00 0.00 0.00 26 1013.6
20240613134922 78 158 0.0 0.0 0.00 0.00 0.00 28 1014.3
20240613134420 78 157 0.0 0.0 0.00 0.00 0.00 27 1014.2
20240613133918 77 163 0.0 0.0 0.00 0.00 0.00 27 1014.2
20240613133418 77 177 0.9 0.9 0.00 0.00 0.00 27 1014.1
20240613132917 76 162 0.0 0.0 0.00 0.00 0.00 28 1013.9
20240613132416 75 156 0.0 0.0 0.00 0.00 0.00 28 1013.9
20240613131914 75 164 0.0 0.0 0.00 0.00 0.00 28 1014.1
20240613131409 75 163 0.0 0.0 0.00 0.00 0.00 28 1013.9
20240613130907 74 161 0.0 0.0 0.00 0.00 0.00 29 1013.8